Gypsum, OH

7:57 AM EDT on September 25, 2016 (GMT -0400)
Keller

Weather History for KPCW - March, 2014

Change the Weather History Date:

Wednesday, March 12, 2014

  Actual Average (KTOL) Record (KTOL)
Temperature  
Mean Temperature 24 °F 36 °F  
Max Temperature 39 °F 45 °F 76 °F (1990)
Min Temperature 10 °F 27 °F -10 °F (1948)
Degree Days  
Heating Degree Days 40 29  
Month to date heating degree days 372  
Since 1 July heating degree days 4948  
Cooling Degree Days 0 0  
Month to date cooling degree days 0  
Year to date cooling degree days 0  
Moisture  
Dew Point 22 °F    
Average Humidity 87    
Maximum Humidity 100    
Minimum Humidity 62    
Precipitation  
Precipitation 0.00 in 0.07 in 1.32 in (2012)
Month to date precipitation 0.90  
Year to date precipitation 5.02  
Snow  
Snow 0.00 in 0.30 in - ()
Month to date snowfall 2.9  
Since 1 July snowfall 33.4  
Snow Depth -    
Sea Level Pressure  
Sea Level Pressure 29.65 in    
Wind  
Wind Speed 15 mph (NNE)    
Max Wind Speed 32 mph    
Max Gust Speed 46 mph    
Visibility 5 miles    
Events Snow    
T = Trace of Precipitation, MM = Missing Value Source: NWS Daily Summary

Daily Weather History Graph

Daily Weather History Graph

Search for Another Location

Airport or City:

Trip Planner

Search our weather history database for the weather conditions in past years. The results will help you decide how hot, cold, wet, or windy it might be!

Date:

Astronomy

Mar. 12, 2014 Rise Set
Actual Time 7:48 AM EDT 7:34 PM EDT
Civil Twilight 7:20 AM EDT 8:02 PM EDT
Nautical Twilight 6:48 AM EDT 8:34 PM EDT
Astronomical Twilight 6:16 AM EDT 9:07 PM EDT
Moon 4:02 PM EDT (3/12) 5:21 AM EDT (3/12)
Length of Visible Light 12h 41m
Length of Day
11h 46m
Waxing Gibbous, 85% of the Moon is Illuminated
Mar 12
Waxing Gibbous
Mar 16
Full
Mar 23
Last Quarter
Mar 30
New
Apr 7
First Quarter

Hourly Weather History & Observations

Time (EDT) Temp. Windchill Dew Point Humidity Pressure Visibility Wind Dir Wind Speed Gust Speed Precip Events Conditions
12:14 AM 39.2 °F 34.2 °F 35.6 °F 87% 29.67 in 8.0 mi East 6.9 mph - N/A   Overcast
12:33 AM 39.2 °F 32.5 °F 35.6 °F 87% 29.67 in 8.0 mi East 10.4 mph - N/A   Overcast
12:54 AM 37.4 °F 30.8 °F 33.8 °F 87% 29.67 in 6.0 mi ENE 9.2 mph - N/A   Mostly Cloudy
1:14 AM 37.4 °F 31.4 °F 33.8 °F 87% 29.65 in 5.0 mi ENE 8.1 mph - N/A   Mostly Cloudy
1:33 AM 37.4 °F 30.8 °F 33.8 °F 87% 29.65 in 4.0 mi ENE 9.2 mph - N/A   Mostly Cloudy
1:54 AM 35.6 °F 26.6 °F 33.8 °F 93% 29.63 in 4.0 mi ENE 13.8 mph - N/A   Mostly Cloudy
1:56 AM 35.6 °F 26.2 °F 33.8 °F 93% 29.63 in 5.0 mi ENE 15.0 mph - N/A   Mostly Cloudy
2:34 AM 33.8 °F 23.9 °F 32.0 °F 93% 29.61 in 3.0 mi ENE 15.0 mph - N/A   Overcast
2:37 AM 33.8 °F 23.9 °F 32.0 °F 93% 29.61 in 4.0 mi NE 15.0 mph - N/A   Overcast
3:13 AM 32.0 °F 22.1 °F 30.2 °F 93% 29.59 in 9.0 mi NE 13.8 mph - N/A   Scattered Clouds
3:34 AM 32.0 °F 22.5 °F 30.2 °F 93% 29.59 in 10.0 mi NE 12.7 mph - N/A   Overcast
3:53 AM 32.0 °F 22.5 °F 30.0 °F 92% 29.57 in 10.0 mi NE 12.7 mph - N/A   Overcast
4:14 AM 32.0 °F 24.2 °F 30.2 °F 93% 29.56 in 10.0 mi NE 9.2 mph - N/A   Overcast
4:31 AM 32.0 °F 22.5 °F 30.2 °F 93% 29.55 in 10.0 mi NE 12.7 mph - N/A   Overcast
4:54 AM 32.0 °F 22.1 °F 28.4 °F 87% 29.53 in 10.0 mi NE 13.8 mph - N/A   Overcast
5:13 AM 32.0 °F 22.1 °F 28.4 °F 87% 29.52 in 10.0 mi NE 13.8 mph - N/A   Overcast
5:34 AM 30.2 °F 19.8 °F 26.6 °F 86% 29.52 in 10.0 mi NE 13.8 mph - N/A   Overcast
5:54 AM 31.1 °F 20.9 °F 27.1 °F 85% 29.51 in 8.0 mi NE 13.8 mph - N/A Snow Light Snow
6:14 AM 30.2 °F 19.3 °F 28.4 °F 93% 29.48 in 1.2 mi NE 15.0 mph - N/A Snow Light Snow
6:33 AM 30.2 °F 19.8 °F 28.4 °F 93% 29.48 in 0.8 mi NE 13.8 mph - N/A Snow Light Snow
6:57 AM 28.4 °F 17.5 °F 28.4 °F 100% 29.48 in 1.0 mi NE 13.8 mph - N/A Snow Light Snow
7:04 AM 28.4 °F 15.8 °F 28.4 °F 100% 29.48 in 1.0 mi NNE 18.4 mph - N/A Snow Light Snow
7:34 AM 28.4 °F 15.8 °F 28.4 °F 100% 29.44 in 0.8 mi NNE 18.4 mph - N/A Snow Light Snow
7:54 AM 30.2 °F 18.9 °F 28.4 °F 93% 29.45 in 0.8 mi NNE 16.1 mph - N/A Snow Light Snow
8:12 AM 30.2 °F 18.5 °F 28.4 °F 93% 29.45 in 0.8 mi NNE 17.3 mph 27.6 mph N/A Snow Light Snow
8:34 AM 30.2 °F 18.1 °F 28.4 °F 93% 29.46 in 0.5 mi NNE 18.4 mph - N/A Snow Light Snow
8:54 AM 30.0 °F 17.9 °F 29.1 °F 96% 29.44 in 0.5 mi NNE 18.4 mph - 0.00 in Snow Light Snow
9:14 AM 30.2 °F 18.1 °F 28.4 °F 93% 29.45 in 0.2 mi NNE 18.4 mph - N/A Snow Light Snow
9:34 AM 30.2 °F 17.8 °F 28.4 °F 93% 29.47 in 0.2 mi NNE 19.6 mph - N/A Snow Snow
9:54 AM 30.0 °F 17.5 °F 29.1 °F 96% 29.47 in 0.2 mi NNE 19.6 mph - 0.00 in Snow Snow
10:13 AM 30.2 °F 17.8 °F 28.4 °F 93% 29.47 in 0.2 mi NNE 19.6 mph 27.6 mph N/A Snow Snow
10:25 AM 28.4 °F 16.6 °F 28.4 °F 100% 29.48 in 0.2 mi NNE 16.1 mph 28.8 mph N/A Snow Light Snow
10:54 AM 30.2 °F 18.1 °F 28.4 °F 93% 29.44 in 0.5 mi NNE 18.4 mph - N/A Snow Light Snow
11:14 AM 30.2 °F 18.5 °F 28.4 °F 93% 29.44 in 0.5 mi NNE 17.3 mph - N/A Snow Light Snow
11:34 AM 28.4 °F 15.4 °F 28.4 °F 100% 29.44 in 0.8 mi NE 19.6 mph - N/A Snow Light Snow
11:46 AM 28.4 °F 15.4 °F 28.4 °F 100% 29.45 in 1.2 mi NNE 19.6 mph - N/A Snow Light Snow
12:14 PM 28.4 °F 15.4 °F 28.4 °F 100% 29.46 in 0.8 mi NNE 19.6 mph - N/A Snow Light Snow
12:34 PM 28.4 °F 13.3 °F 26.6 °F 93% 29.48 in 0.2 mi NNE 27.6 mph 39.1 mph N/A Snow Light Snow
12:53 PM 28.4 °F 14.7 °F 26.6 °F 93% 29.48 in 0.2 mi NNE 21.9 mph 36.8 mph N/A Snow Light Snow
1:14 PM 26.6 °F 10.8 °F 26.6 °F 100% 29.50 in 0.5 mi NNE 27.6 mph 38.0 mph N/A Snow Light Snow
1:32 PM 26.6 °F 10.6 °F 24.8 °F 93% 29.52 in 0.2 mi North 28.8 mph - N/A Snow Heavy Snow
1:49 PM 24.8 °F 7.3 °F 24.8 °F 100% 29.53 in 0.2 mi North 32.2 mph 46.0 mph N/A   Overcast
2:14 PM 24.8 °F 8.1 °F 23.0 °F 93% 29.57 in 0.2 mi North 28.8 mph 39.1 mph N/A Snow Heavy Snow
2:34 PM 23.0 °F 6.0 °F 21.2 °F 93% 29.58 in 0.2 mi North 27.6 mph - N/A Snow Snow
2:49 PM 21.2 °F 3.0 °F 19.4 °F 93% 29.60 in 0.2 mi North 29.9 mph 42.6 mph N/A Snow Light Snow
3:13 PM 21.2 °F 4.9 °F 19.4 °F 93% 29.61 in 0.8 mi North 23.0 mph 38.0 mph N/A Snow Light Snow
3:34 PM 21.2 °F 5.2 °F 19.4 °F 93% 29.64 in 1.5 mi North 21.9 mph 34.5 mph N/A   Overcast
3:50 PM 19.4 °F 2.1 °F 17.6 °F 93% 29.66 in 1.5 mi North 24.2 mph - N/A   Overcast
4:14 PM 21.2 °F 4.2 °F 19.4 °F 93% 29.68 in 2.0 mi North 25.3 mph 32.2 mph N/A   Overcast
4:32 PM 21.2 °F 5.6 °F 17.6 °F 86% 29.70 in 2.5 mi North 20.7 mph - N/A   Overcast
4:45 PM 21.2 °F 4.9 °F 17.6 °F 86% 29.72 in 4.0 mi North 23.0 mph - N/A   Overcast
5:13 PM 19.4 °F 2.8 °F 17.6 °F 93% - 6.0 mi North 21.9 mph - N/A   Mostly Cloudy
5:26 PM 19.4 °F 4.1 °F 15.8 °F 86% 29.76 in 5.0 mi North 18.4 mph - N/A   Mostly Cloudy
5:54 PM 19.4 °F 3.2 °F 15.8 °F 86% 29.79 in 6.0 mi North 20.7 mph - N/A Snow Light Snow
6:14 PM 19.4 °F 4.1 °F 15.8 °F 86% 29.81 in 8.0 mi North 18.4 mph - N/A Snow Light Snow
6:33 PM 19.4 °F 3.6 °F 15.8 °F 86% 29.83 in 10.0 mi North 19.6 mph - N/A Snow Light Snow
6:49 PM 19.4 °F 4.5 °F 14.0 °F 80% 29.84 in 10.0 mi North 17.3 mph - N/A Snow Light Snow
7:14 PM 19.4 °F 6.0 °F 12.2 °F 74% 29.86 in 10.0 mi North 13.8 mph - N/A Snow Light Snow
7:33 PM 19.4 °F 4.5 °F 12.2 °F 74% 29.87 in 10.0 mi North 17.3 mph - N/A Snow Light Snow
7:54 PM 17.6 °F 1.7 °F 8.6 °F 68% 29.89 in 10.0 mi North 18.4 mph - N/A Snow Light Snow
8:14 PM 17.6 °F 4.3 °F 8.6 °F 68% 29.90 in 10.0 mi North 12.7 mph - N/A Snow Light Snow
8:33 PM 15.8 °F 1.4 °F 6.8 °F 68% 29.91 in 10.0 mi North 13.8 mph - N/A Snow Light Snow
8:54 PM 14.0 °F 0.5 °F 7.2 °F 74% 29.93 in 10.0 mi NNE 11.5 mph - N/A Snow Light Snow
9:14 PM 14.0 °F -1.4 °F 3.2 °F 62% 29.94 in 10.0 mi North 15.0 mph - N/A Snow Light Snow
9:34 PM 14.0 °F -0.8 °F 3.2 °F 62% 29.95 in 10.0 mi North 13.8 mph - N/A   Light Freezing Rain
9:54 PM 13.1 °F -3.1 °F 3.0 °F 64% 29.97 in 10.0 mi North 16.1 mph - N/A   Clear
10:13 PM 10.4 °F -4.8 °F 3.2 °F 73% 29.98 in 10.0 mi NNE 12.7 mph - N/A   Clear
10:34 PM 10.4 °F -5.4 °F 1.4 °F 67% 29.98 in 10.0 mi NNE 13.8 mph - N/A   Clear
10:54 PM 10.4 °F -7.7 °F -0.4 °F 62% 29.99 in 10.0 mi North 18.4 mph - N/A   Clear
11:13 PM 10.4 °F -6.0 °F -0.4 °F 62% 29.99 in 10.0 mi North 15.0 mph - N/A   Clear
11:34 PM 10.4 °F -7.2 °F -0.4 °F 62% 29.99 in 10.0 mi North 17.3 mph - N/A   Clear
11:54 PM 10.0 °F -4.5 °F 1.0 °F 67% 29.99 in 10.0 mi NNE 11.5 mph - N/A   Clear